Regional Weather Roundup
Issued by NWS Midland/Odessa, TX

Home | Current Version | Previous Version | Text Only | Print | Product List | Glossary On
Versions: 1 2 3 4 5 6 7 8 9 10 11 12 13 14 15 16 17 18 19 20 21 22 23 24 25 26 27 28 29 30 31 32 33 34 35 36 37 38 39 40 41 42 43 44 45 46 47 48 49 50
000
ASUS44 KMAF 282210
RWRMAF
MIDLAND AREA WEATHER ROUNDUP
NATIONAL WEATHER SERVICE MIDLAND TX
500 PM CDT TUE MAR 28 2017

...IN SOUTHWEST TEXAS AND SOUTHEAST NEW MEXICO...

CITY           SKY/WX    TMP DP  RH WIND       PRES   REMARKS
ALPINE         SUNNY     80  14   8 S28G38    29.69F
ANDREWS        NOT AVBL
ARTESIA        MOSUNNY   72  27  18 SW22G33   29.68R
BIG SPRING     PTSUNNY   76  60  56 SE12      29.59F
CARLSBAD       CLOUDY    71  22  15 W32G39    29.63S
DRYDEN           N/A     81  63  54 E21G30    29.54F
FORT STOCKTON  SUNNY     90  18   7 SW23G32   29.52F
GUAD PASS      CLOUDY    52  30  43 W40G60    29.78R
HOBBS          PTSUNNY   73  27  17 SW15      29.62F
MARFA          SQUALL    68  27  21 W43G67    29.72R SQUALL  VSB 1/2
MIDLAND AIRPK  MOSUNNY   85  31  14 S5        29.57F
MIDLAND INTL   SUNNY     84  29  13 VRB3      29.55F
ODESSA           N/A     85  29  13 W3        29.55F
PECOS          CLOUDY    78  34  20 CALM      29.56F
PRESIDIO       FAIR      85  18   8 SW10      29.57F
SEMINOLE       PTSUNNY   76  31  19 W8        29.61F
SNYDER         CLOUDY    62  54  74 S10       29.60S
WINK           PTSUNNY   76  34  21 W23       29.57R
$$
...OTHER STATIONS IN TEXAS...

CITY           SKY/WX    TMP DP  RH WIND       PRES   REMARKS
ABILENE        PTSUNNY   73  64  73 SE24G32   29.59F
AMARILLO       CLOUDY    55  52  89 E14       29.73S
AUSTIN         MOSUNNY   86  62  44 SE25G36   29.66F
BROWNSVILLE    PTSUNNY   83  70  64 SE23G31   29.66F
CORPUS CHRISTI CLOUDY    80  71  74 SE25G36   29.68F
DALLAS FTW     PTSUNNY   81  67  62 SE16G22   29.67F
DEL RIO        PTSUNNY   81  68  64 SE22G30   29.53F
EL PASO        PTSUNNY   61  25  25 W20G30    29.81F
HOUSTON INT    MOSUNNY   81  68  64 SE23G30   29.78F
LUBBOCK        MOSUNNY   73  56  54 NE8G20    29.61F
SAN ANGELO     MOSUNNY   79  62  56 S17G30    29.59F
SAN ANTONIO    PTSUNNY   83  60  45 SE28G40   29.65F
WACO           PTSUNNY   83  66  56 S21G26    29.68F
WICHITA FALLS  NOT AVBL
$$
...OTHER LOCATIONS IN NEW MEXICO...

CITY           SKY/WX    TMP DP  RH WIND       PRES   REMARKS
ALAMAGORDO     PTSUNNY   59  30  33 SW15      29.77F
ALBUQUERQUE    CLOUDY    48  38  68 N13       29.81R
CANNON AFB     MOSUNNY   72  34  25 W14G21    29.65F
CLOVIS         MOSUNNY   73  36  25 SW10G20   29.65F
HOLLOMAN AFB   CLOUDY    61  30  31 SW15      29.79F
ROSWELL        MOSUNNY   72  18  13 SW24G31     N/A
RUIDOSO        CLOUDY    52  21  30 SW24G31   29.80F
SANTA FE       CLOUDY    49  35  58 CALM      29.78R
TRUTH OR CONSE CLOUDY    55  28  35 W21       29.77S
TUCUMCARI      TSTM      53  49  86 N15       29.67S
$$



USA.gov is the U.S. government's official web portal to all federal, state and local government web resources and services.